Time,TemperatureF,DewpointF,PressureIn,WindDirection,WindDirectionDegrees,WindSpeedMPH,WindSpeedGustMPH,Humidity,HourlyPrecipIn,Conditions,Clouds,dailyrainin,SoftwareType,DateUTC
2013-02-19 09:10:00,36.3,24.5,30.01,SSE,168,9.0,10.0,62,0.00,,,0.00,Wunderground v.1.15,2013-02-19 14:10:00,
2013-02-19 09:15:00,36.3,24.9,30.01,South,170,9.0,10.0,63,0.00,,,0.00,Wunderground v.1.15,2013-02-19 14:15:00,
2013-02-19 09:20:00,36.3,25.7,30.01,SSE,157,10.0,10.0,65,0.00,,,0.00,Wunderground v.1.15,2013-02-19 14:20:00,
2013-02-19 09:30:00,36.1,26.6,30.00,SSE,147,9.0,14.0,68,0.00,,,0.00,Wunderground v.1.15,2013-02-19 14:30:00,
2013-02-19 09:35:00,35.9,27.1,29.99,SSE,161,11.0,14.0,70,0.00,,,0.00,Wunderground v.1.15,2013-02-19 14:35:00,
2013-02-19 09:40:00,35.6,27.8,29.99,SE,131,12.0,15.0,73,0.00,,,0.00,Wunderground v.1.15,2013-02-19 14:40:00,
2013-02-19 09:45:00,35.2,28.1,29.99,SSE,152,12.0,15.0,75,0.00,,,0.00,Wunderground v.1.15,2013-02-19 14:45:00,
2013-02-19 09:50:00,34.9,28.4,29.99,South,175,11.0,11.0,77,0.00,,,0.00,Wunderground v.1.15,2013-02-19 14:50:00,
2013-02-19 09:55:00,34.6,28.8,29.99,SE,146,10.0,11.0,79,0.00,,,0.00,Wunderground v.1.15,2013-02-19 14:55:00,
2013-02-19 10:05:00,34.0,29.1,29.99,South,176,12.0,12.0,82,0.00,,,0.01,Wunderground v.1.15,2013-02-19 15:05:00,
2013-02-19 10:10:00,33.8,29.2,29.98,South,175,12.0,13.0,83,0.00,,,0.01,Wunderground v.1.15,2013-02-19 15:10:00,
2013-02-19 10:15:00,33.7,29.4,29.98,SSW,196,11.0,13.0,84,0.00,,,0.01,Wunderground v.1.15,2013-02-19 15:15:00,
2013-02-19 10:20:00,33.6,29.6,29.97,SE,135,10.0,16.0,85,0.00,,,0.02,Wunderground v.1.15,2013-02-19 15:20:00,
2013-02-19 10:25:00,33.7,29.7,29.97,SSW,194,11.0,16.0,85,0.00,,,0.02,Wunderground v.1.15,2013-02-19 15:25:00,
2013-02-19 10:35:00,33.7,30.0,29.97,SSE,161,12.0,15.0,86,0.00,,,0.02,Wunderground v.1.15,2013-02-19 15:35:00,
2013-02-19 10:40:00,33.7,30.0,29.97,SSE,148,13.0,13.0,86,0.00,,,0.03,Wunderground v.1.15,2013-02-19 15:40:00,
2013-02-19 10:45:00,33.7,30.2,29.96,SE,145,13.0,13.0,87,0.00,,,0.03,Wunderground v.1.15,2013-02-19 15:45:00,
2013-02-19 10:50:00,33.8,30.3,29.97,SSE,160,12.0,12.0,87,0.00,,,0.03,Wunderground v.1.15,2013-02-19 15:50:00,
2013-02-19 10:55:00,33.9,30.7,29.96,SSE,152,12.0,15.0,88,0.00,,,0.03,Wunderground v.1.15,2013-02-19 15:55:00,
2013-02-19 11:00:00,34.2,30.7,29.96,SE,127,13.0,15.0,87,0.00,,,0.03,Wunderground v.1.15,2013-02-19 16:00:00,
2013-02-19 11:10:00,34.5,31.0,29.95,South,188,12.0,12.0,87,0.00,,,0.03,Wunderground v.1.15,2013-02-19 16:10:00,
2013-02-19 11:15:00,34.7,31.2,29.95,SSE,155,12.0,12.0,87,0.00,,,0.03,Wunderground v.1.15,2013-02-19 16:15:00,
2013-02-19 11:20:00,34.8,31.0,29.95,SSE,159,11.0,11.0,86,0.00,,,0.03,Wunderground v.1.15,2013-02-19 16:20:00,
2013-02-19 11:25:00,34.8,31.0,29.94,SSE,158,10.0,11.0,86,0.00,,,0.03,Wunderground v.1.15,2013-02-19 16:25:00,
2013-02-19 11:30:00,34.9,31.1,29.94,SSE,164,11.0,11.0,86,0.00,,,0.03,Wunderground v.1.15,2013-02-19 16:30:00,
2013-02-19 11:40:00,35.1,31.3,29.94,South,184,11.0,11.0,86,0.00,,,0.03,Wunderground v.1.15,2013-02-19 16:40:00,
2013-02-19 11:45:00,35.3,31.5,29.94,SSE,159,11.0,11.0,86,0.00,,,0.03,Wunderground v.1.15,2013-02-19 16:45:00,
2013-02-19 11:50:00,35.4,31.6,29.93,SSE,147,11.0,12.0,86,0.00,,,0.03,Wunderground v.1.15,2013-02-19 16:50:00,
2013-02-19 11:55:00,35.6,31.5,29.93,SE,144,11.0,12.0,85,0.00,,,0.03,Wunderground v.1.15,2013-02-19 16:55:00,
2013-02-19 12:00:00,35.7,31.6,29.93,SE,146,11.0,11.0,85,0.00,,,0.03,Wunderground v.1.15,2013-02-19 17:00:00,
2013-02-19 12:10:00,35.8,31.7,29.92,SSE,157,10.0,11.0,85,0.00,,,0.03,Wunderground v.1.15,2013-02-19 17:10:00,
2013-02-19 12:15:00,35.8,31.7,29.92,SSE,155,9.0,11.0,85,0.00,,,0.03,Wunderground v.1.15,2013-02-19 17:15:00,
2013-02-19 12:20:00,36.0,31.9,29.92,SSE,164,10.0,10.0,85,0.00,,,0.03,Wunderground v.1.15,2013-02-19 17:20:00,
2013-02-19 12:25:00,36.1,31.7,29.91,SSE,154,10.0,11.0,84,0.00,,,0.03,Wunderground v.1.15,2013-02-19 17:25:00,
2013-02-19 12:30:00,36.4,32.0,29.91,SE,134,10.0,11.0,84,0.00,,,0.03,Wunderground v.1.15,2013-02-19 17:30:00,
2013-02-19 12:35:00,36.6,31.9,29.91,SSE,160,11.0,14.0,83,0.00,,,0.03,Wunderground v.1.15,2013-02-19 17:35:00,
2013-02-19 12:45:00,36.9,32.2,29.90,SE,141,12.0,12.0,83,0.00,,,0.04,Wunderground v.1.15,2013-02-19 17:45:00,
2013-02-19 12:50:00,36.9,32.2,29.90,South,175,11.0,11.0,83,0.00,,,0.04,Wunderground v.1.15,2013-02-19 17:50:00,
2013-02-19 12:55:00,36.9,32.2,29.90,SSE,167,11.0,11.0,83,0.00,,,0.04,Wunderground v.1.15,2013-02-19 17:55:00,
2013-02-19 13:00:00,36.8,32.1,29.89,SSE,165,10.0,13.0,83,0.00,,,0.04,Wunderground v.1.15,2013-02-19 18:00:00,
2013-02-19 13:05:00,36.8,32.1,29.89,South,171,11.0,20.0,83,0.00,,,0.04,Wunderground v.1.15,2013-02-19 18:05:00,
2013-02-19 13:10:00,36.9,32.2,29.88,SSE,155,12.0,12.0,83,0.00,,,0.04,Wunderground v.1.15,2013-02-19 18:10:00,
2013-02-19 13:20:00,36.9,32.2,29.88,South,185,12.0,20.0,83,0.00,,,0.04,Wunderground v.1.15,2013-02-19 18:20:00,
2013-02-19 13:25:00,37.6,32.9,29.88,South,178,13.0,20.0,83,0.00,,,0.04,Wunderground v.1.15,2013-02-19 18:25:00,
2013-02-19 13:30:00,37.7,32.7,29.87,SSE,160,12.0,12.0,82,0.00,,,0.04,Wunderground v.1.15,2013-02-19 18:30:00,
2013-02-19 13:35:00,37.5,32.5,29.86,South,175,12.0,13.0,82,0.00,,,0.04,Wunderground v.1.15,2013-02-19 18:35:00,
2013-02-19 13:40:00,37.4,32.4,29.87,SE,146,12.0,20.0,82,0.00,,,0.04,Wunderground v.1.15,2013-02-19 18:40:00,
2013-02-19 13:50:00,37.7,32.7,29.86,SSE,155,14.0,14.0,82,0.00,,,0.04,Wunderground v.1.15,2013-02-19 18:50:00,
2013-02-19 13:55:00,37.8,32.8,29.86,South,183,13.0,20.0,82,0.00,,,0.04,Wunderground v.1.15,2013-02-19 18:55:00,
2013-02-19 14:00:00,37.9,32.6,29.86,SSE,153,12.0,20.0,81,0.00,,,0.04,Wunderground v.1.15,2013-02-19 19:00:00,
2013-02-19 14:05:00,38.1,32.8,29.86,SSE,161,11.0,20.0,81,0.00,,,0.04,Wunderground v.1.15,2013-02-19 19:05:00,
2013-02-19 14:10:00,38.3,33.0,29.85,SE,146,9.0,20.0,81,0.00,,,0.04,Wunderground v.1.15,2013-02-19 19:10:00,
2013-02-19 14:15:00,38.5,32.9,29.85,SE,143,9.0,20.0,80,0.00,,,0.04,Wunderground v.1.15,2013-02-19 19:15:00,
2013-02-19 14:25:00,38.6,33.0,29.85,SSE,155,10.0,11.0,80,0.00,,,0.04,Wunderground v.1.15,2013-02-19 19:25:00,
2013-02-19 14:30:00,38.8,33.2,29.85,SSE,159,11.0,11.0,80,0.00,,,0.04,Wunderground v.1.15,2013-02-19 19:30:00,
2013-02-19 14:35:00,39.9,34.2,29.84,SE,136,10.0,12.0,80,0.00,,,0.04,Wunderground v.1.15,2013-02-19 19:35:00,
2013-02-19 14:40:00,40.3,34.0,29.84,SSW,195,9.0,9.0,78,0.00,,,0.04,Wunderground v.1.15,2013-02-19 19:40:00,
2013-02-19 14:45:00,40.2,33.9,29.84,SSE,168,8.0,20.0,78,0.00,,,0.04,Wunderground v.1.15,2013-02-19 19:45:00,
2013-02-19 14:50:00,40.3,33.7,29.84,SSE,159,9.0,20.0,77,0.00,,,0.04,Wunderground v.1.15,2013-02-19 19:50:00,
2013-02-19 14:55:00,40.2,33.6,29.84,SSE,148,9.0,20.0,77,0.00,,,0.04,Wunderground v.1.15,2013-02-19 19:55:00,
2013-02-19 15:05:00,39.8,33.2,29.85,South,191,8.0,20.0,77,0.00,,,0.04,Wunderground v.1.15,2013-02-19 20:05:00,
2013-02-19 15:10:00,39.6,33.0,29.85,West,261,7.0,20.0,77,0.00,,,0.04,Wunderground v.1.15,2013-02-19 20:10:00,
2013-02-19 15:15:00,39.5,32.9,29.86,SSW,192,6.0,20.0,77,0.00,,,0.04,Wunderground v.1.15,2013-02-19 20:15:00,
2013-02-19 15:20:00,39.3,33.0,29.86,WSW,243,6.0,20.0,78,0.00,,,0.04,Wunderground v.1.15,2013-02-19 20:20:00,
2013-02-19 15:25:00,39.1,32.8,29.88,West,277,6.0,20.0,78,0.00,,,0.04,Wunderground v.1.15,2013-02-19 20:25:00,
2013-02-19 15:30:00,36.7,31.7,29.88,SW,232,8.0,8.0,82,0.00,,,0.04,Wunderground v.1.15,2013-02-19 20:30:00,
2013-02-19 15:35:00,34.8,31.3,29.89,WNW,297,9.0,9.0,87,0.00,,,0.04,Wunderground v.1.15,2013-02-19 20:35:00,
2013-02-19 15:40:00,34.2,31.3,29.89,West,275,7.0,7.0,89,0.00,,,0.04,Wunderground v.1.15,2013-02-19 20:40:00,
2013-02-19 15:45:00,34.0,31.4,29.89,WNW,294,5.0,20.0,90,0.00,,,0.05,Wunderground v.1.15,2013-02-19 20:45:00,
2013-02-19 15:50:00,33.9,31.6,29.89,WNW,292,4.0,20.0,91,0.00,,,0.05,Wunderground v.1.15,2013-02-19 20:50:00,
2013-02-19 16:00:00,33.5,31.2,29.90,West,277,5.0,5.0,91,0.00,,,0.05,Wunderground v.1.15,2013-02-19 21:00:00,
2013-02-19 16:05:00,33.3,31.2,29.90,WSW,246,4.0,7.0,92,0.00,,,0.05,Wunderground v.1.15,2013-02-19 21:05:00,
2013-02-19 16:10:00,33.1,31.0,29.91,West,270,4.0,20.0,92,0.00,,,0.05,Wunderground v.1.15,2013-02-19 21:10:00,
2013-02-19 16:15:00,32.9,31.1,29.91,West,263,5.0,20.0,93,0.00,,,0.06,Wunderground v.1.15,2013-02-19 21:15:00,
2013-02-19 16:20:00,32.9,31.1,29.91,West,259,5.0,5.0,93,0.00,,,0.06,Wunderground v.1.15,2013-02-19 21:20:00,
2013-02-19 16:30:00,32.3,30.5,29.92,WSW,253,7.0,7.0,93,0.00,,,0.06,Wunderground v.1.15,2013-02-19 21:30:00,
2013-02-19 16:35:00,32.1,30.3,29.92,WNW,294,6.0,20.0,93,0.00,,,0.06,Wunderground v.1.15,2013-02-19 21:35:00,
2013-02-19 16:40:00,31.5,29.7,29.92,WNW,290,7.0,7.0,93,0.00,,,0.06,Wunderground v.1.15,2013-02-19 21:40:00,
2013-02-19 16:45:00,31.2,29.4,29.92,West,265,8.0,8.0,93,0.00,,,0.06,Wunderground v.1.15,2013-02-19 21:45:00,
2013-02-19 16:50:00,30.9,29.1,29.93,WNW,294,8.0,20.0,93,0.00,,,0.06,Wunderground v.1.15,2013-02-19 21:50:00,
2013-02-19 16:55:00,30.8,29.0,29.93,West,280,8.0,20.0,93,0.00,,,0.06,Wunderground v.1.15,2013-02-19 21:55:00,
2013-02-19 17:05:00,31.0,29.2,29.93,WNW,294,7.0,20.0,93,0.00,,,0.06,Wunderground v.1.15,2013-02-19 22:05:00,
2013-02-19 17:10:00,31.0,29.2,29.94,WNW,287,7.0,20.0,93,0.00,,,0.06,Wunderground v.1.15,2013-02-19 22:10:00,
2013-02-19 17:15:00,30.9,28.9,29.94,West,271,8.0,20.0,92,0.00,,,0.06,Wunderground v.1.15,2013-02-19 22:15:00,
2013-02-19 17:20:00,30.9,28.6,29.94,West,263,8.0,8.0,91,0.00,,,0.06,Wunderground v.1.15,2013-02-19 22:20:00,
2013-02-19 17:25:00,30.8,28.2,29.94,West,263,8.0,14.0,90,0.00,,,0.06,Wunderground v.1.15,2013-02-19 22:25:00,
2013-02-19 17:35:00,30.4,27.5,29.95,WNW,291,8.0,10.0,89,0.00,,,0.06,Wunderground v.1.15,2013-02-19 22:35:00,
2013-02-19 17:40:00,30.2,27.1,29.96,West,269,8.0,20.0,88,0.00,,,0.06,Wunderground v.1.15,2013-02-19 22:40:00,
2013-02-19 17:45:00,30.1,27.0,29.96,West,259,9.0,20.0,88,0.00,,,0.06,Wunderground v.1.15,2013-02-19 22:45:00,
2013-02-19 17:50:00,30.0,26.9,29.96,WNW,293,8.0,20.0,88,0.00,,,0.06,Wunderground v.1.15,2013-02-19 22:50:00,
2013-02-19 17:55:00,29.9,26.8,29.97,West,270,8.0,20.0,88,0.00,,,0.06,Wunderground v.1.15,2013-02-19 22:55:00,
2013-02-19 18:00:00,29.7,26.3,29.97,WNW,285,7.0,8.0,87,0.00,,,0.06,Wunderground v.1.15,2013-02-19 23:00:00,
2013-02-19 18:10:00,29.6,25.9,29.97,WNW,282,7.0,7.0,86,0.00,,,0.06,Wunderground v.1.15,2013-02-19 23:10:00,
2013-02-19 18:15:00,29.5,25.8,29.98,WSW,255,6.0,8.0,86,0.00,,,0.06,Wunderground v.1.15,2013-02-19 23:15:00,
2013-02-19 18:20:00,29.5,25.5,29.98,West,269,9.0,9.0,85,0.00,,,0.06,Wunderground v.1.15,2013-02-19 23:20:00,
2013-02-19 18:25:00,29.6,25.6,29.98,West,277,10.0,10.0,85,0.00,,,0.06,Wunderground v.1.15,2013-02-19 23:25:00,
2013-02-19 18:30:00,29.5,25.3,29.98,West,273,8.0,8.0,84,0.00,,,0.06,Wunderground v.1.15,2013-02-19 23:30:00,
2013-02-19 18:40:00,29.4,25.2,29.99,West,264,7.0,7.0,84,0.00,,,0.06,Wunderground v.1.15,2013-02-19 23:40:00,
2013-02-19 18:45:00,29.4,25.4,29.99,West,271,8.0,8.0,85,0.00,,,0.06,Wunderground v.1.15,2013-02-19 23:45:00,
2013-02-19 18:50:00,29.4,25.2,29.99,WNW,284,8.0,10.0,84,0.00,,,0.06,Wunderground v.1.15,2013-02-19 23:50:00,
2013-02-19 18:55:00,29.4,25.2,29.99,West,272,8.0,10.0,84,0.00,,,0.06,Wunderground v.1.15,2013-02-19 23:55:00,
2013-02-19 19:00:00,29.4,25.2,29.99,West,259,7.0,7.0,84,0.00,,,0.06,Wunderground v.1.15,2013-02-20 00:00:00,
2013-02-19 19:05:00,29.4,25.2,29.99,WSW,250,7.0,10.0,84,0.00,,,0.06,Wunderground v.1.15,2013-02-20 00:05:00,
2013-02-19 19:15:00,29.5,25.3,29.99,West,260,6.0,18.0,84,0.00,,,0.06,Wunderground v.1.15,2013-02-20 00:15:00,
2013-02-19 19:20:00,29.6,25.4,29.99,West,260,6.0,6.0,84,0.00,,,0.06,Wunderground v.1.15,2013-02-20 00:20:00,
2013-02-19 19:25:00,29.6,25.1,29.99,WSW,245,7.0,7.0,83,0.00,,,0.06,Wunderground v.1.15,2013-02-20 00:25:00,
2013-02-19 19:30:00,29.6,25.1,29.99,WSW,240,7.0,18.0,83,0.00,,,0.06,Wunderground v.1.15,2013-02-20 00:30:00,
2013-02-19 19:35:00,29.6,24.8,29.99,West,263,9.0,18.0,82,0.00,,,0.06,Wunderground v.1.15,2013-02-20 00:35:00,
2013-02-19 19:45:00,29.7,24.6,30.00,SSW,213,8.0,18.0,81,0.00,,,0.06,Wunderground v.1.15,2013-02-20 00:45:00,
2013-02-19 19:50:00,29.7,24.6,30.00,West,263,7.0,18.0,81,0.00,,,0.06,Wunderground v.1.15,2013-02-20 00:50:00,
2013-02-19 19:55:00,29.7,24.6,30.00,West,263,6.0,18.0,81,0.00,,,0.06,Wunderground v.1.15,2013-02-20 00:55:00,
2013-02-19 20:00:00,29.7,24.3,30.00,WSW,256,6.0,18.0,80,0.00,,,0.06,Wunderground v.1.15,2013-02-20 01:00:00,
2013-02-19 20:05:00,29.7,24.6,30.00,WNW,284,6.0,18.0,81,0.00,,,0.06,Wunderground v.1.15,2013-02-20 01:05:00,
2013-02-19 20:10:00,29.8,24.4,30.00,West,277,6.0,6.0,80,0.00,,,0.06,Wunderground v.1.15,2013-02-20 01:10:00,
2013-02-19 20:20:00,29.2,23.8,30.00,NW,309,9.0,9.0,80,0.00,,,0.06,Wunderground v.1.15,2013-02-20 01:20:00,
2013-02-19 20:25:00,28.5,23.7,30.01,WNW,288,10.0,10.0,82,0.00,,,0.06,Wunderground v.1.15,2013-02-20 01:25:00,
2013-02-19 20:30:00,28.2,23.7,30.01,WNW,289,9.0,18.0,83,0.00,,,0.06,Wunderground v.1.15,2013-02-20 01:30:00,
2013-02-19 20:35:00,27.9,23.7,30.01,WNW,286,8.0,18.0,84,0.00,,,0.06,Wunderground v.1.15,2013-02-20 01:35:00,
2013-02-19 20:40:00,27.8,23.9,30.01,WNW,286,7.0,18.0,85,0.00,,,0.06,Wunderground v.1.15,2013-02-20 01:40:00,
2013-02-19 20:50:00,27.8,23.6,30.01,West,276,9.0,18.0,84,0.00,,,0.06,Wunderground v.1.15,2013-02-20 01:50:00,
2013-02-19 20:55:00,27.8,23.6,30.01,WSW,251,9.0,18.0,84,0.00,,,0.06,Wunderground v.1.15,2013-02-20 01:55:00,
2013-02-19 21:00:00,27.9,23.4,30.01,WSW,247,8.0,18.0,83,0.00,,,0.06,Wunderground v.1.15,2013-02-20 02:00:00,
2013-02-19 21:05:00,27.9,23.1,30.01,WNW,295,10.0,18.0,82,0.00,,,0.06,Wunderground v.1.15,2013-02-20 02:05:00,
2013-02-19 21:10:00,27.6,21.9,30.01,SW,234,12.0,20.0,79,0.00,,,0.06,Wunderground v.1.15,2013-02-20 02:10:00,
2013-02-19 21:15:00,27.4,21.4,30.02,WSW,253,12.0,20.0,78,0.00,,,0.06,Wunderground v.1.15,2013-02-20 02:15:00,
2013-02-19 21:25:00,27.1,20.8,30.02,WSW,242,12.0,17.0,77,0.00,,,0.06,Wunderground v.1.15,2013-02-20 02:25:00,
2013-02-19 21:30:00,26.9,20.7,30.02,WSW,248,12.0,18.0,77,0.00,,,0.06,Wunderground v.1.15,2013-02-20 02:30:00,
2013-02-19 21:35:00,26.8,20.6,30.02,WSW,253,14.0,18.0,77,0.00,,,0.06,Wunderground v.1.15,2013-02-20 02:35:00,
2013-02-19 21:40:00,26.7,20.5,30.02,West,267,13.0,18.0,77,0.00,,,0.06,Wunderground v.1.15,2013-02-20 02:40:00,
2013-02-19 21:45:00,26.6,19.7,30.03,WSW,256,13.0,20.0,75,0.00,,,0.06,Wunderground v.1.15,2013-02-20 02:45:00,
2013-02-19 21:55:00,26.3,19.1,30.03,SW,236,16.0,24.0,74,0.00,,,0.06,Wunderground v.1.15,2013-02-20 02:55:00,
2013-02-19 22:00:00,26.1,18.3,30.03,WSW,258,15.0,18.0,72,0.00,,,0.06,Wunderground v.1.15,2013-02-20 03:00:00,
2013-02-19 22:05:00,26.0,17.9,30.03,WSW,258,16.0,18.0,71,0.00,,,0.06,Wunderground v.1.15,2013-02-20 03:05:00,
2013-02-19 22:10:00,25.8,18.0,30.02,WSW,238,14.0,14.0,72,0.00,,,0.06,Wunderground v.1.15,2013-02-20 03:10:00,
2013-02-19 22:15:00,25.8,17.7,30.02,WSW,257,14.0,18.0,71,0.00,,,0.06,Wunderground v.1.15,2013-02-20 03:15:00,
2013-02-19 22:20:00,25.7,17.6,30.02,West,263,14.0,14.0,71,0.00,,,0.06,Wunderground v.1.15,2013-02-20 03:20:00,
2013-02-19 22:25:00,25.6,17.5,30.02,WSW,239,13.0,18.0,71,0.00,,,0.06,Wunderground v.1.15,2013-02-20 03:25:00,
2013-02-19 22:30:00,25.4,17.3,30.03,WSW,241,13.0,19.0,71,0.00,,,0.06,Wunderground v.1.15,2013-02-20 03:30:00,
2013-02-19 22:35:00,25.3,17.2,30.03,WSW,243,13.0,19.0,71,0.00,,,0.06,Wunderground v.1.15,2013-02-20 03:35:00,
2013-02-19 22:40:00,25.3,17.2,30.03,WNW,284,13.0,18.0,71,0.00,,,0.06,Wunderground v.1.15,2013-02-20 03:40:00,
2013-02-19 22:45:00,25.4,17.3,30.03,West,263,13.0,18.0,71,0.00,,,0.06,Wunderground v.1.15,2013-02-20 03:45:00,
2013-02-19 22:50:00,25.3,16.9,30.03,West,272,13.0,13.0,70,0.00,,,0.06,Wunderground v.1.15,2013-02-20 03:50:00,
2013-02-19 23:00:00,25.1,17.0,30.03,WSW,248,14.0,14.0,71,0.00,,,0.06,Wunderground v.1.15,2013-02-20 04:00:00,
2013-02-19 23:05:00,25.1,17.0,30.03,WSW,239,14.0,20.0,71,0.00,,,0.06,Wunderground v.1.15,2013-02-20 04:05:00,
2013-02-19 23:10:00,25.1,17.0,30.03,West,265,15.0,15.0,71,0.00,,,0.06,Wunderground v.1.15,2013-02-20 04:10:00,
2013-02-19 23:15:00,25.2,17.4,30.03,WSW,248,13.0,18.0,72,0.00,,,0.06,Wunderground v.1.15,2013-02-20 04:15:00,
2013-02-19 23:20:00,25.1,17.3,30.04,WSW,242,11.0,11.0,72,0.00,,,0.06,Wunderground v.1.15,2013-02-20 04:20:00,
2013-02-19 23:30:00,24.8,17.4,30.04,West,259,14.0,14.0,73,0.00,,,0.06,Wunderground v.1.15,2013-02-20 04:30:00,
2013-02-19 23:35:00,24.6,17.5,30.04,WSW,254,13.0,18.0,74,0.00,,,0.06,Wunderground v.1.15,2013-02-20 04:35:00,
2013-02-19 23:40:00,24.4,17.6,30.04,WSW,257,14.0,14.0,75,0.00,,,0.06,Wunderground v.1.15,2013-02-20 04:40:00,
2013-02-19 23:45:00,24.3,17.8,30.04,West,268,13.0,18.0,76,0.00,,,0.06,Wunderground v.1.15,2013-02-20 04:45:00,
2013-02-19 23:50:00,24.3,18.4,30.05,West,268,11.0,11.0,78,0.00,,,0.06,Wunderground v.1.15,2013-02-20 04:50:00,
2013-02-19 23:55:00,24.3,18.1,30.04,WSW,253,10.0,18.0,77,0.00,,,0.06,Wunderground v.1.15,2013-02-20 04:55:00,